COSMOS 2251 DEB, 35433

Orbit data source: Space-Track

COSMOS 2251 DEB, 35433 is space debris in LEO originally from a launch on Wed, 16 Jun 1993 UTC launched from the Plesetsk Missile And Space Complex (PKMTR). The debris from Iridium 33, an American commercial communications satellite, has been tracked extensively since its accidental collision with the defunct Russian satellite Cosmos 2251 in 2009. This event, occurring at high speed in low Earth orbit (LEO), generated thousands of pieces of space debris, significantly increasing the risk of further collisions. The Iridium 33 debris cloud has impacted space traffic management and orbital debris mitigation strategies, making it a subject of ongoing study in space situational awareness.

Loading next visibility...
Identifier
35433, 1993-036AKB
Orbit
LEO
Country
Flag of CISCIS
Related business
Manufacturer
Unknown
Mission
Spacecraft
Bus & Motor
Unknown
Mass
Unknown
Launch date (UTC)
1993-06-16 (33 years ago)
Launch vehicle
Unknown
Launch site
Plesetsk Missile And Space Complex (PKMTR)
Object type
Payload
Rocket body
Debris
Shape & HBR
Unknown shape, 0.1 m
Radar Cross Section
Small (<0.1 m²)

Expand to show TLE details & history
Last TLE update: 2 days ago

TLE from 2 days ago
0 COSMOS 2251 DEB
1 35433U 93036AKB 26161.92338161  .00000433  00000-0  16059-3 0  9992
2 35433  74.0347   8.2298 0026242  22.0125  42.1861 14.35021743891653
Epoch: 2026-06-10T22:09Z
TLE epoch observation values (Epoch: 2026-06-10T22:09:40.171Z)
Latitude
60.22365°
Longitude
166.36295°
Altitude
771.003 km
Speed
7.482 km/s
True Right ascension
02h 32m 13s
True Declination
60° 04' 32"
Sunlit
Object was in daylight at epoch
Visualization orbit readout
Latitude
Unknown
Longitude
Unknown
Altitude
Unknown
Speed
Unknown
Apparent Right ascension
Unknown
Apparent Declination
Unknown
Sunlit
N/A
Visualization observer readout
Local Sidereal Time
04:13:26
Azimuth
Unknown
Elevation
Unknown
Doppler factor
Unknown
Orbital elements
Apogee altitude
791.384 km
Perigee altitude
753.854 km
Semi-major axis
7,150.756 km
Eccentricity
0.00262
Inclination
74.0347°
RAAN
8.2298°
Arg. of periapsis
22.0125°
True anomaly
42.38853°
Mean anomaly
42.1861°
Eccentric anomaly
42.28727°
Mean motion
3.58934 °/min
Orbital period
100.3 mins
BSTAR
0.00016059

Documentation

Showing up to 5 results
|